Погода в Первомайске

Россия / Сахалинская область     49°57′56″N   143°16′11″E
темп.,
°C
ветер,
м/с
пор.,
м/с
влажн.,
%
обл.,
%
осадки,
мм/ч
давл.,
гПа
погр.,
м
23 января, сб
сб2323:00−25сз259899 0.1 1018190
02:00−25сз269895 0.0 1019222
05:00−26ссз239677 0.0 102056
08:00−27ссз22950 0.0 102230
11:00−23ссз23910 0.0 1022117
14:00−19сз38720 0.0 1022793
17:00−20сз12830 0.0 1023116
20:00−25сз11850 0.0 102520
24 января, вс
вс2423:00−26ссв01860 0.0 102520
02:00−26св01790 0.0 102520
05:00−25в11728 0.0 102520
08:00−22юв017297 0.0 102420
11:00−19ююз017697 0.0 102334
14:00−14сз127988 0.0 1023394
17:00−15сз248887 0.0 1024284
20:00−20с229117 0.0 102720
25 января, пн
пн2523:00−21с129228 0.0 102822
02:00−22с228488 0.0 102923
05:00−23с127344 0.0 103021
08:00−24с22780 0.0 103123
11:00−21сз23830 0.0 1032131
14:00−18сз410680 0.0 1032898
17:00−20ссз310750 0.0 1033872
20:00−26с22830 0.0 103525
26 января, вт
вт2623:00−27с22870 0.0 103621
02:00−27ссв228224 0.0 103619
05:00−26всв117462 0.0 103519
08:00−26юв117669 0.0 103422
11:00−23ю238485 0.0 1033164
14:00−20ю259398 0.0 1029334
17:00−20ююв369799 0.4 1027344
20:00−21ююв2697100 0.5 1024310
27 января, ср
ср2723:00−20юв2797100 0.8 1021255
02:00−17юв2696100 0.8 1018255
05:00−15в1297100 1.4 101373
08:00−15св2396100 1.9 1008137
11:00−13св3495100 5.8 1003174
14:00−12сз4695100 5.4 999331
17:00−15сз51292100 6.9 997645
20:00−21зсз5179595 0.1 998738